Flag for Germany Weather past 2 weeks in Warburg, North Rhine-Westphalia, Germany

Now
63 °F

Sunny.


Feels Like: 63 °F
Forecast: 47 / 75 °F
Wind: 5 mph from North

Location: Kassel / Calden

Current Time: Jul 31, 2015 at 8:24:52 PM

Latest Report: Jul 31, 2015 at 7:50 PM


Visibility: 10 mi

Pressure: 30.07 "Hg

Humidity: 45%

Dew point: 41 °F

Location of WarburgLocation

Historic Weather in Warburg — Graph

°F

Warburg temperature yesterday

Maximum temperature yesterday: 64 °F (at 2:20 PM)
Minimum temperature yesterday: 50 °F (at 6:20 AM)
Average temperature yesterday: 59 °F

Past Weeks' High & Low Weather Summary

 TemperatureHumidityPressure
High90 °F (Jul 17, 2:50 PM)100% (Jul 19, 7:20 AM)30.12 "Hg (Jul 19, 7:20 AM)
Low45 °F (Jul 31, 6:20 AM)25% (Jul 18, 8:20 PM)29.56 "Hg (Jul 25, 10:20 AM)
Average66 °F67%29.89 "Hg
* Reported Jul 16 7:20 PM — Jul 31 7:20 PM, Warburg, Weather by CustomWeather, © 2015

Note: Actual official high and low records may vary slightly from our data, if they occured in-between our weather recording intervals... More about our weather records

Advertising

Warburg weather history for previous 24 hours

 ConditionsComfort  
Time TempWeatherWind HumidityBarometerVisibility
7:20 PM
Fri, Jul 31
63 °FSunny.9 mph45%30.07 "Hg10 mi
6:50 PM64 °FPassing clouds.7 mph40%30.07 "HgN/A
6:20 PM64 °FPassing clouds.7 mph43%30.07 "HgN/A
5:50 PM64 °FPassing clouds.7 mph43%30.07 "HgN/A
5:20 PM64 °FPassing clouds.9 mph43%30.07 "HgN/A
4:50 PM64 °FPassing clouds.5 mph43%30.09 "HgN/A
4:20 PM63 °FSunny.3 mph42%30.09 "Hg10 mi
3:50 PM64 °FPassing clouds.7 mph43%30.09 "HgN/A
3:20 PM63 °FPassing clouds.5 mph42%30.09 "HgN/A
2:50 PM63 °FPassing clouds.6 mph45%30.09 "HgN/A
2:20 PM63 °FSunny.9 mph45%30.12 "Hg10 mi
1:50 PM63 °FSunny.5 mph45%30.12 "Hg10 mi
1:20 PM61 °FScattered clouds.7 mph45%30.12 "HgN/A
12:50 PM59 °FScattered clouds.9 mph51%30.12 "HgN/A
12:20 PM59 °FScattered clouds.7 mph51%30.12 "HgN/A
11:50 AM59 °FScattered clouds.8 mph55%30.12 "HgN/A
11:20 AM59 °FScattered clouds.7 mph55%30.12 "HgN/A
10:50 AM55 °FScattered clouds.7 mph67%30.12 "HgN/A
10:20 AM57 °FScattered clouds.8 mph63%30.12 "HgN/A
9:20 AM52 °FScattered clouds.7 mph77%30.12 "HgN/A
8:50 AM52 °FScattered clouds.6 mph77%30.12 "HgN/A
8:20 AM52 °FScattered clouds.6 mph77%30.12 "HgN/A
7:50 AM50 °FScattered clouds.1 mph88%30.12 "HgN/A
7:20 AM48 °FPartly sunny.2 mph94%30.12 "HgN/A
6:50 AM46 °FScattered clouds.2 mph87%30.12 "HgN/A
6:20 AM45 °FClear.1 mph93%30.09 "Hg10 mi
5:50 AM46 °FClear.6 mph87%30.09 "Hg10 mi
9:50 PM
Thu, Jul 30
54 °FPassing clouds.6 mph72%30.04 "HgN/A
9:20 PM55 °FPassing clouds.7 mph67%30.04 "HgN/A
8:50 PM59 °FPassing clouds.10 mph63%30.01 "HgN/A
8:20 PM59 °FPassing clouds.13 mph63%30.01 "HgN/A
Weather by CustomWeather, © 2015

See weather overviewHow to use our weather pages